This is the latest recevied weather packets stored in our database for station/object KC5TIL. If no packets are shown the sender has not sent any weather packets the latest 10 day(s).
| Time | Temp. | Humidity | Pressure | Rain* | Wind** | Luminosity | Snow |
|---|---|---|---|---|---|---|---|
| 1788328184 | 30° C | 64% | 1016.3 hPa | 0 mm | - | 0 W/m² | - |
| 1788327878 | 30° C | 63% | 1016.2 hPa | 0 mm | - | 0 W/m² | - |
| 1788327574 | 30° C | 64% | 1016.2 hPa | 0 mm | - | 0 W/m² | - |
| 1788327269 | 30° C | 63% | 1016.2 hPa | 0 mm | - | 0 W/m² | - |
| 1788326968 | 30° C | 63% | 1016.2 hPa | 0 mm | - | 0 W/m² | - |
| 1788326663 | 30° C | 62% | 1016.1 hPa | 0 mm | - | 0 W/m² | - |
| 1788326359 | 30.56° C | 61% | 1016.1 hPa | 0 mm | - | 0 W/m² | - |
| 1788326054 | 30.56° C | 61% | 1016 hPa | 0 mm | - | 0 W/m² | - |
| 1788325753 | 30.56° C | 61% | 1015.9 hPa | 0 mm | - | 0 W/m² | - |
| 1788325452 | 30.56° C | 60% | 1016.2 hPa | 0 mm | - | 0 W/m² | - |
| 1788325147 | 30.56° C | 61% | 1016.1 hPa | 0 mm | - | 0 W/m² | - |
| 1788324842 | 31.11° C | 60% | 1016.1 hPa | 0 mm | - | 0 W/m² | - |
| 1788324539 | 31.11° C | 59% | 1016.1 hPa | 0 mm | - | 0 W/m² | - |
| 1788324234 | 31.11° C | 59% | 1016.1 hPa | 0 mm | - | 0 W/m² | - |
| 1788323929 | 31.11° C | 58% | 1016.1 hPa | 0 mm | - | 0 W/m² | - |
| 1788323624 | 31.67° C | 58% | 1016 hPa | 0 mm | - | 0 W/m² | - |
| 1788323319 | 31.67° C | 58% | 1015.9 hPa | 0 mm | - | 0 W/m² | - |
| 1788323018 | 31.67° C | 58% | 1015.9 hPa | 0 mm | - | 0 W/m² | - |
| 1788322713 | 32.22° C | 56% | 1015.7 hPa | 0 mm | - | 0 W/m² | - |
| 1788322408 | 32.22° C | 57% | 1015.6 hPa | 0 mm | - | 0 W/m² | - |
| 1788322106 | 31.67° C | 59% | 1015.6 hPa | 0 mm | - | 0 W/m² | - |
| 1788321803 | 32.22° C | 57% | 1015.2 hPa | 0 mm | - | 0 W/m² | - |
| 1788321501 | 31.67° C | 58% | 1015.1 hPa | 0 mm | - | 0 W/m² | - |
| 1788321197 | 31.67° C | 59% | 1015.5 hPa | 0 mm | - | 0 W/m² | - |
| 1788320895 | 32.22° C | 59% | 1015.5 hPa | 0 mm | - | 0 W/m² | - |
* Rain latest hour (hover to see other rain measurements)
** Current wind speed in m/s (hover to see current wind gust speed)